Duvenstedt, Germany

12:56 PM CEST on August 24, 2017 (GMT +0200)
Duvenstedt

Weather History for 10147 - August, 2013

Change the Weather History Date:

Saturday, August 3, 2013

  Actual Average Record
Temperature  
Mean Temperature 70 °F -  
Max Temperature 81 °F 70 °F - ()
Min Temperature 60 °F 53 °F - ()
Cooling Degree Days 6    
Growing Degree Days 20 (Base 50)    
Moisture  
Dew Point 62 °F    
Average Humidity 66    
Maximum Humidity 94    
Minimum Humidity 39    
Precipitation  
Precipitation 0.02 in 0.09 in - ()
Sea Level Pressure  
Sea Level Pressure 29.97 in    
Wind  
Wind Speed 8 mph ()    
Max Wind Speed 25 mph    
Max Gust Speed 38 mph    
Visibility 7.9 miles    
Events Rain    
T = Trace of Precipitation, MM = Missing Value Source: Averaged Metar Reports

Daily Weather History Graph

Daily Weather History Graph

Search for Another Location

Airport or City:

Trip Planner

Search our weather history database for the weather conditions in past years. The results will help you decide how hot, cold, wet, or windy it might be!

Date:

Astronomy

Aug. 03, 2013 Rise Set
Actual Time 5:38 AM CEST 9:12 PM CEST
Civil Twilight 4:55 AM CEST 9:55 PM CEST
Nautical Twilight 3:55 AM CEST 10:54 PM CEST
Astronomical Twilight 2:17 AM CEST 12:27 AM CEST
Moon 2:27 AM CEST (8/3) 6:48 PM CEST (8/3)
Length of Visible Light 17h 00m
Length of Day
15h 34m
Waning Crescent, 11% of the Moon is Illuminated
Aug 3
Waning Crescent
Aug 6
New
Aug 14
First Quarter
Aug 21
Full
Aug 28
Last Quarter

Hourly Weather History & Observations

Time (CEST) Temp. Heat Index Dew Point Humidity Pressure Visibility Wind Dir Wind Speed Gust Speed Precip Events Conditions
12:00 AM 80 °F - 60 °F 39% 29.85 in 25 mi ESE 8.9 mph - -   Clear
12:20 AM 78.8 °F - 60.8 °F 54% 29.83 in - ESE 9.2 mph - N/A   Clear
12:50 AM 77.0 °F - 60.8 °F 57% 29.83 in - SE 5.8 mph - N/A   Clear
1:20 AM 77.0 °F - 60.8 °F 57% 29.83 in - SE 5.8 mph - N/A   Clear
1:50 AM 75.2 °F - 60.8 °F 61% 29.83 in - SE 5.8 mph - N/A   Clear
2:00 AM 75 °F - 61 °F 52% 29.85 in 25 mi SE 4.5 mph - -   Clear
2:20 AM 75.2 °F - 60.8 °F 61% 29.83 in - ESE 6.9 mph - N/A   Clear
2:50 AM 73.4 °F - 60.8 °F 65% 29.83 in - SE 6.9 mph - N/A   Clear
3:00 AM 74 °F - 61 °F 55% 29.83 in 25 mi ESE 6.7 mph - -  
3:20 AM 73.4 °F - 60.8 °F 65% 29.80 in - SE 6.9 mph - N/A   Clear
3:50 AM 71.6 °F - 60.8 °F 69% 29.80 in - SE 8.1 mph - N/A   Clear
4:00 AM 72 °F - 61 °F 59% 29.82 in 25 mi SE 6.7 mph - -  
4:20 AM 73.4 °F - 60.8 °F 65% 29.80 in - SE 6.9 mph - N/A   Clear
4:50 AM 71.6 °F - 60.8 °F 69% 29.80 in - SE 8.1 mph - N/A   Clear
5:20 AM 71.6 °F - 60.8 °F 69% 29.80 in - SSE 5.8 mph - N/A   Clear
5:50 AM 71.6 °F - 60.8 °F 69% 29.83 in - SSE 5.8 mph - N/A   Clear
6:00 AM 72 °F - 60 °F 57% 29.84 in 22 mi SSE 6.7 mph - -   Clear
6:20 AM 71.6 °F - 60.8 °F 69% 29.83 in - South 5.8 mph - N/A   Clear
6:50 AM 73.4 °F - 62.6 °F 69% 29.86 in - South 5.8 mph - N/A   Clear
7:00 AM 73 °F - 62 °F 59% 29.87 in 25 mi South 6.7 mph - -   Partly Cloudy
7:20 AM 75.2 °F - 62.6 °F 65% 29.86 in - SW 5.8 mph - N/A   Clear
7:50 AM 77.0 °F - 62.6 °F 61% 29.89 in - WSW 10.4 mph - N/A   Clear
8:00 AM 76 °F - 62 °F 53% 29.90 in 25 mi WSW 8.9 mph - - Rain Light Rain
8:20 AM 77.0 °F - 64.4 °F 65% 29.92 in - West 8.1 mph - N/A   Clear
8:50 AM 77.0 °F - 66.2 °F 69% 29.92 in - West 8.1 mph - N/A   Clear
9:00 AM 77 °F - 65 °F 58% 29.91 in 22 mi West 8.9 mph - -   Partly Cloudy
9:20 AM 75.2 °F - 66.2 °F 73% 29.95 in - West 12.7 mph - N/A   Clear
9:50 AM 75.2 °F - 66.2 °F 73% 29.95 in - West 10.4 mph - N/A   Clear
10:00 AM 76 °F - 66 °F 64% 29.96 in 19 mi West 8.9 mph - -   Partly Cloudy
10:20 AM 75.2 °F - 64.4 °F 69% 29.95 in - West 8.1 mph - N/A   Clear
10:50 AM 77.0 °F - 66.2 °F 69% 29.95 in - West 9.2 mph - N/A   Clear
11:20 AM 75.2 °F - 64.4 °F 69% 29.98 in 6.2 mi WSW 10.4 mph - N/A Rain Light Rain
11:50 AM 73.4 °F - 66.2 °F 78% 29.98 in 6.2 mi SW 8.1 mph - N/A Rain Light Rain
12:00 PM 73 °F - 66 °F 73% 30.00 in 14 mi SW 6.7 mph - - Rain Light Rain
12:20 PM 73.4 °F - 66.2 °F 78% 29.98 in 6.2 mi SSW 9.2 mph - N/A Rain Light Rain
12:50 PM 75.2 °F - 68.0 °F 78% 29.98 in 6.2 mi West 4.6 mph - N/A Rain Light Rain Showers
1:00 PM 75 °F - 67 °F 70% 29.99 in 13 mi West 4.5 mph - - Rain Light Rain Showers
1:20 PM 77.0 °F - 62.6 °F 61% 29.98 in 6.2 mi WSW 11.5 mph - N/A   Scattered Clouds
1:50 PM 78.8 °F - 64.4 °F 61% 29.98 in 6.2 mi West 11.5 mph - N/A   Partly Cloudy
2:00 PM 78 °F - 64 °F 52% 30.00 in 19 mi West 11.2 mph - -   Partly Cloudy
2:20 PM 78.8 °F - 62.6 °F 57% 30.01 in 6.2 mi WSW 15.0 mph - N/A   Scattered Clouds
2:50 PM 78.8 °F - 60.8 °F 54% 30.01 in 6.2 mi West 11.5 mph - N/A   Scattered Clouds
3:00 PM 79 °F - 61 °F 44% 30.02 in 22 mi West 11.2 mph - -   Scattered Clouds
3:20 PM 78.8 °F - 60.8 °F 54% 30.01 in 6.2 mi West 12.7 mph - N/A   Scattered Clouds
3:50 PM 80.6 °F 81.5 °F 60.8 °F 51% 30.01 in 6.2 mi West 9.2 mph - N/A   Scattered Clouds
4:00 PM 80 °F - 60 °F 41% 30.02 in 28 mi West 8.9 mph - -   Scattered Clouds
4:20 PM 80.6 °F 81.5 °F 60.8 °F 51% 30.01 in 6.2 mi West 6.9 mph - N/A   Partly Cloudy
4:50 PM 80.6 °F 81.5 °F 60.8 °F 51% 30.04 in 6.2 mi SW 11.5 mph - N/A   Scattered Clouds
5:20 PM 75.2 °F - 60.8 °F 61% 30.04 in 6.2 mi West 25.3 mph 38.0 mph N/A   Mostly Cloudy
5:50 PM 69.8 °F - 62.6 °F 78% 30.06 in 6.2 mi NW 19.6 mph - N/A Rain Light Rain Showers
6:00 PM 70 °F - 62 °F 69% 30.09 in 28 mi NW 17.9 mph - - Rain Light Rain Showers
6:20 PM 69.8 °F - 60.8 °F 73% 30.06 in 6.2 mi NNW 16.1 mph - N/A   Scattered Clouds
6:50 PM 68.0 °F - 60.8 °F 78% 30.09 in 6.2 mi NNW 13.8 mph - N/A   Scattered Clouds
7:00 PM 69 °F - 61 °F 69% 30.10 in 28 mi NNW 13.4 mph - - Rain Light Rain Showers
7:20 PM 69.8 °F - 60.8 °F 73% 30.09 in 6.2 mi NNW 12.7 mph - N/A   Scattered Clouds
7:50 PM 69.8 °F - 60.8 °F 73% 30.09 in 6.2 mi NW 11.5 mph - N/A   Partly Cloudy
8:00 PM 70 °F - 60 °F 63% 30.11 in 28 mi NW 11.2 mph - -   Partly Cloudy
8:20 PM 68.0 °F - 60.8 °F 78% 30.09 in 6.2 mi NNW 8.1 mph - N/A   Partly Cloudy
8:50 PM 68.0 °F - 60.8 °F 78% 30.09 in 6.2 mi NW 6.9 mph - N/A   Partly Cloudy
9:00 PM 67 °F - 60 °F 70% 30.12 in 25 mi NW 6.7 mph - -   Scattered Clouds
9:20 PM 66.2 °F - 59.0 °F 78% 30.12 in - NNW 4.6 mph - N/A   Clear
9:50 PM 64.4 °F - 59.0 °F 83% 30.12 in - NNW 3.5 mph - N/A   Clear
10:00 PM 64 °F - 59 °F 77% 30.15 in 25 mi NNW 2.2 mph - -   Clear
10:20 PM 62.6 °F - 59.0 °F 88% 30.12 in - NW 3.5 mph - N/A   Clear
10:50 PM 60.8 °F - 59.0 °F 94% 30.15 in - NW 2.3 mph - N/A   Clear
11:20 PM 60.8 °F - 59.0 °F 94% 30.15 in - WNW 2.3 mph - N/A   Clear
11:50 PM 60.8 °F - 59.0 °F 94% 30.15 in - NNW 3.5 mph - N/A   Clear